DW4509 Weather Reports


Display with metric or nautical units.
time (UTC)temp
F
wind
direction
speed
MPH
gust
MPH
rain 1hr
in
rain 24hr
in
rain mn
in
humidity
%
barometer
mb
20260831072308 59 262 0.0 9.0 0.00 0.55 0.31 91 1006.3
20260831071323 59 283 0.0 1.0 0.00 0.55 0.31 92 1006.2
20260831070253 58 268 0.0 0.0 0.00 0.55 0.31 92 1005.9
20260831065243 58 293 0.0 0.0 0.00 0.55 0.31 92 1005.8
20260831063052 57 82 0.0 0.0 0.00 0.55 0.31 92 1005.5
20260831062051 57 81 0.0 0.0 0.00 0.55 0.31 92 1005.3
20260831061110 56 81 0.0 0.0 0.00 0.55 0.31 92 1005.2
20260831054923 56 81 0.0 0.0 0.00 0.55 0.31 92 1005.0
20260831053916 56 75 0.0 0.0 0.00 0.55 0.31 92 1004.8
20260831051756 56 80 0.0 0.0 0.00 0.55 0.31 92 1004.6
20260831050815 56 83 0.0 0.0 0.00 0.55 0.31 92 1004.5
20260831044609 56 77 0.0 0.0 0.00 0.55 0.31 92 1004.2
20260831043619 56 77 0.0 0.0 0.00 0.55 0.31 92 1004.0
20260831040257 55 77 0.0 0.0 0.00 0.55 0.31 92 1003.8
20260831035236 55 77 0.0 0.0 0.00 0.55 0.30 92 1003.8
20260831034215 55 77 0.0 0.0 0.00 0.55 0.30 92 1003.7
20260831033223 56 77 0.0 0.0 0.00 0.55 0.30 92 1003.6
20260831032149 56 79 0.0 0.0 0.00 0.55 0.30 92 1003.5
20260831031115 56 79 0.0 0.0 0.00 0.55 0.30 92 1003.5
20260831030106 56 79 0.0 0.0 0.00 0.55 0.30 92 1003.4
20260831025056 56 79 0.0 0.0 0.00 0.55 0.30 92 1003.4
20260831023001 56 79 0.0 0.0 0.00 0.55 0.30 92 1003.3
20260831022000 56 79 0.0 0.0 0.00 0.55 0.30 92 1003.2
20260831015901 55 79 0.0 0.0 0.00 0.55 0.30 92 1003.1
20260831014921 55 79 0.0 0.0 0.00 0.55 0.30 91 1003.2
20260831012723 55 79 0.0 0.0 0.00 0.55 0.30 91 1003.2
20260831011653 55 79 0.0 0.0 0.00 0.55 0.30 91 1003.1
20260831010707 55 79 0.0 0.0 0.00 0.55 0.30 90 1003.2
20260831005732 55 79 0.0 0.0 0.00 0.55 0.30 90 1003.3
20260831002449 57 79 0.0 0.0 0.00 0.55 0.30 90 1003.2
20260831001426 57 262 0.0 0.0 0.03 0.55 0.30 90 1003.3
20260831000432 57 261 0.0 0.0 0.11 0.55 0.30 90 1003.2
20260830235407 57 261 0.0 0.0 0.11 0.49 0.25 90 1003.8
20260830234401 58 300 0.0 1.0 0.10 0.48 0.23 90 1003.8
20260830232147 58 347 0.0 0.0 0.30 0.44 0.19 90 1003.4
20260830230030 58 345 0.0 0.0 0.00 0.24 0.00 90 1003.7
20260830223849 58 346 0.0 0.0 0.00 0.24 0.24 89 1003.8
20260830222814 58 316 0.0 0.0 0.03 0.24 0.24 89 1003.9
20260830221835 58 315 0.0 0.0 0.06 0.24 0.24 89 1004.0
20260830215756 58 315 0.0 0.0 0.20 0.19 0.19 89 1004.3
20260830214758 58 13 0.0 0.0 0.15 0.16 0.16 88 1004.5
20260830212659 59 79 0.0 0.0 0.08 0.11 0.11 88 1004.8
20260830210509 60 297 0.0 0.0 0.07 0.03 0.03 88 1004.9
20260830205443 60 82 0.0 0.0 0.00 0.03 0.02 87 1004.7
20260830204505 60 82 0.0 0.0 0.00 0.03 0.01 87 1004.5
20260830203505 60 82 0.0 0.0 0.00 0.03 0.01 86 1004.6
20260830201314 61 82 0.0 0.0 0.06 0.03 0.01 85 1004.8
20260830200301 62 82 0.0 0.0 0.00 0.03 0.00 85 1004.8
20260830195230 62 77 0.0 0.0 0.00 0.03 0.00 84 1004.9
20260830193052 63 20 0.0 1.0 0.00 0.03 0.00 82 1004.9
20260830192110 63 75 0.0 1.0 0.00 0.03 0.00 80 1004.9
20260830191048 64 302 0.0 1.0 0.00 0.03 0.00 79 1004.7
20260830184932 65 94 0.0 4.0 0.00 0.03 0.00 76 1004.5
20260830183948 65 0 0.0 2.0 0.00 0.03 0.00 77 1004.4
20260830182918 65 291 0.0 1.0 0.00 0.03 0.00 78 1004.5
20260830181851 65 23 0.0 0.0 0.00 0.04 0.00 78 1004.6
20260830175636 67 26 0.0 0.0 0.00 0.04 0.00 76 1004.5
20260830174655 67 30 0.0 0.0 0.00 0.04 0.00 74 1004.6
20260830173621 67 89 0.0 0.0 0.00 0.05 0.00 74 1004.7
20260830172616 68 198 0.0 1.0 0.00 0.05 0.00 73 1004.7
20260830171608 68 37 0.0 0.0 0.00 0.06 0.00 70 1004.4
20260830165506 69 63 0.0 3.0 0.00 0.07 0.00 72 1004.5
20260830164435 70 266 0.0 4.0 0.00 0.08 0.00 69 1004.6
20260830162247 70 343 0.0 0.0 0.00 0.09 0.00 70 1004.6
20260830161228 70 102 0.0 0.0 0.00 0.09 0.00 68 1004.6
20260830160206 70 252 0.0 6.0 0.00 0.10 0.00 71 1004.6
20260830155158 70 68 0.0 0.0 0.00 0.10 0.00 69 1004.7
20260830154137 71 281 0.0 0.0 0.00 0.10 0.00 72 1004.8
20260830153114 71 98 0.0 2.0 0.00 0.11 0.00 70 1005.0
20260830152114 72 79 0.0 0.0 0.00 0.12 0.00 71 1005.2
20260830151056 72 240 0.0 0.0 0.00 0.12 0.00 70 1005.3
20260830144943 72 21 0.0 1.0 0.00 0.13 0.00 66 1005.6
20260830143934 72 37 0.0 2.0 0.00 0.13 0.00 68 1005.7
20260830142952 72 350 0.0 0.0 0.00 0.13 0.00 69 1005.9
20260830141951 71 237 0.0 3.0 0.00 0.14 0.00 68 1006.0
20260830140945 71 77 0.0 2.0 0.00 0.14 0.00 68 1006.0
20260830135954 71 346 0.0 0.0 0.00 0.14 0.00 68 1006.2
20260830132634 70 65 0.0 4.0 0.00 0.14 0.00 70 1006.7
20260830131646 70 52 0.0 6.0 0.00 0.14 0.00 68 1006.8
20260830130641 70 249 0.0 6.0 0.00 0.14 0.00 70 1006.9
20260830125701 69 314 0.0 4.0 0.00 0.14 0.00 72 1007.0
20260830124658 69 244 0.0 3.0 0.00 0.14 0.00 71 1007.1
20260830123655 70 267 0.0 4.0 0.00 0.15 0.00 70 1007.0
20260830122708 69 291 0.0 4.0 0.00 0.16 0.00 72 1007.0
20260830121722 68 287 0.0 1.0 0.00 0.17 0.00 73 1007.1
20260830114435 69 342 0.0 3.0 0.00 0.18 0.00 70 1007.2
20260830113416 69 357 0.0 4.0 0.00 0.18 0.00 73 1007.2
20260830112344 68 269 0.0 3.0 0.00 0.20 0.00 78 1007.2
20260830111328 67 324 0.0 2.0 0.00 0.22 0.00 80 1007.4
20260830110335 67 276 0.0 3.0 0.00 0.22 0.00 81 1007.4
20260830105311 67 72 0.0 0.0 0.00 0.22 0.00 82 1007.5
20260830104327 66 48 0.0 0.0 0.00 0.22 0.00 84 1007.5
20260830103314 65 17 0.0 1.0 0.00 0.22 0.00 87 1007.6
20260830094904 64 75 0.0 4.0 0.00 0.22 0.00 92 1007.9
20260830093920 64 345 0.0 0.0 0.00 0.22 0.00 92 1007.8
20260830092928 64 291 0.0 2.0 0.00 0.22 0.00 92 1007.9
20260830091932 63 350 0.0 1.0 0.00 0.22 0.00 92 1007.9
20260830090949 63 302 0.0 0.0 0.00 0.22 0.00 92 1008.0
20260830085951 63 342 0.0 1.0 0.00 0.22 0.00 92 1007.9
20260830084944 63 338 0.0 1.0 0.00 0.22 0.00 92 1007.7
20260830083931 63 343 0.0 0.0 0.00 0.22 0.00 93 1007.9
20260830082955 63 340 0.0 0.0 0.00 0.22 0.00 93 1007.9
20260830082014 63 344 0.0 0.0 0.00 0.22 0.00 93 1007.8
20260830075842 62 351 0.0 1.0 0.00 0.22 0.00 93 1007.7
20260830074900 61 335 0.0 0.0 0.00 0.22 0.00 93 1007.7
20260830073831 61 338 0.0 0.0 0.00 0.22 0.00 93 1007.7